Weather History for Broken Bow, NE

Change the Weather History Date:

Thursday, February 7, 2013

  Actual Average Record
Temperature  
Mean Temperature 34 °F 26 °F  
Max Temperature 53 °F 39 °F 74 °F (1987)
Min Temperature 15 °F 14 °F -21 °F (1933)
Degree Days  
Heating Degree Days 31 39  
Month to date heating degree days 195 273  
Cooling Degree Days 0 0  
Month to date cooling degree days 0 0  
Year to date cooling degree days 0 0  
Moisture  
Dew Point 22 °F    
Average Humidity 56    
Maximum Humidity 91    
Minimum Humidity 21    
Precipitation  
Precipitation 0.00 in 0.02 in 0.08 in (1921)
Sea Level Pressure  
Sea Level Pressure 30.11 in    
Wind  
Wind Speed 9 mph (North)    
Max Wind Speed 21 mph    
Max Gust Speed 30 mph    
Visibility 10 miles    
Events      
T = Trace of Precipitation, MM = Missing Value Source: NWS Daily Summary

Daily Weather History Graph

Daily Weather History Graph

Search for Another Location

Airport:

Trip Planner

Search our weather history database for the weather conditions in past years. The results will help you decide how hot, cold, wet, or windy it might be!

Date:

Astronomy

Feb. 07, 2013 Rise Set
Actual Time 7:43 AM CST 6:02 PM CST
Civil Twilight 7:14 AM CST 6:31 PM CST
Nautical Twilight 6:41 AM CST 7:04 PM CST
Astronomical Twilight 6:09 AM CST 7:36 PM CST
Moon 5:25 AM CST (2/7) 3:28 PM CST (2/7)
Length of Visible Light 11h 17m
Length of Day
10h 19m
Waning Crescent, 9% of the Moon is Illuminated
Feb 7
Waning Crescent
Feb 10
New
Feb 17
First Quarter
Feb 25
Full
Mar 4
Last Quarter

Hourly Weather History & Observations

Time (CST) Temp. Windchill Dew Point Humidity Pressure Visibility Wind Dir Wind Speed Gust Speed Precip Events Conditions
12:53 AM 37.9 °F 30.0 °F 27.0 °F 65% 29.99 in 10.0 mi North 12.7 mph - N/A   Clear
1:53 AM 37.9 °F 30.9 °F 28.0 °F 68% 30.00 in 10.0 mi NNW 10.4 mph - N/A   Clear
2:53 AM 37.9 °F 29.2 °F 27.0 °F 65% 30.01 in 10.0 mi North 15.0 mph - N/A   Clear
3:53 AM 37.0 °F 29.8 °F 27.0 °F 67% 30.01 in 10.0 mi North 10.4 mph - N/A   Mostly Cloudy
4:53 AM 37.9 °F 28.5 °F 27.0 °F 65% 30.02 in 10.0 mi North 17.3 mph - N/A   Overcast
5:53 AM 35.1 °F 25.9 °F 27.0 °F 72% 30.04 in 10.0 mi NNW 13.8 mph - N/A   Clear
6:53 AM 33.1 °F 23.9 °F 26.1 °F 75% 30.07 in 10.0 mi NNW 12.7 mph - N/A   Clear
7:53 AM 28.0 °F 21.7 °F 23.0 °F 81% 30.11 in 10.0 mi NNW 5.8 mph - N/A   Clear
8:53 AM 35.6 °F 28.6 °F 26.6 °F 70% 30.09 in 10.0 mi NNW 9.2 mph - N/A   Clear
9:53 AM 39.9 °F 32.9 °F 27.0 °F 60% 30.14 in 10.0 mi North 11.5 mph - N/A   Clear
10:53 AM 45.0 °F 38.9 °F 26.1 °F 48% 30.14 in 10.0 mi North 12.7 mph - N/A   Clear
11:53 AM 50.0 °F - 26.1 °F 39% 30.13 in 10.0 mi NNW 10.4 mph - N/A   Clear
12:53 PM 51.1 °F - 23.0 °F 33% 30.11 in 10.0 mi North 11.5 mph 21.9 mph N/A   Clear
1:53 PM 52.0 °F - 23.0 °F 32% 30.10 in 10.0 mi NNW 12.7 mph 21.9 mph N/A   Clear
2:53 PM 51.1 °F - 19.9 °F 29% 30.09 in 10.0 mi North 13.8 mph - N/A   Partly Cloudy
3:53 PM 52.0 °F - 12.9 °F 21% 30.09 in 10.0 mi North 16.1 mph - N/A   Clear
4:53 PM 50.0 °F - 16.0 °F 26% 30.10 in 10.0 mi North 11.5 mph - N/A   Clear
5:53 PM 43.0 °F 38.2 °F 19.9 °F 40% 30.14 in 10.0 mi NE 8.1 mph - N/A   Clear
6:53 PM 33.1 °F - 19.0 °F 56% 30.19 in 10.0 mi Calm Calm - N/A   Clear
7:53 PM 30.9 °F 27.5 °F 19.0 °F 61% 30.21 in 10.0 mi East 3.5 mph - N/A   Clear
8:53 PM 26.1 °F - 19.0 °F 75% 30.22 in 10.0 mi Calm Calm - N/A   Clear
9:53 PM 23.0 °F 17.0 °F 18.0 °F 81% 30.23 in 10.0 mi ESE 4.6 mph - N/A   Clear
10:53 PM 19.9 °F - 17.1 °F 89% 30.24 in 10.0 mi Calm Calm - N/A   Clear
11:53 PM 16.0 °F - 12.9 °F 88% 30.24 in 10.0 mi Calm Calm - N/A   Clear